MEA261 OLBA-LCLK

Flight info

Callsign MEA261
Flight time 0h 25m
Altitude 14000
Route KUKLA M31 DESPO R19 EMILI
Aircraft A320/M-SDE3FGHIRWY/LB1

Departure

Time 2026-04-27 21:49
Airport Beirut Rafic Hariri International Airport (OLBA)

Arrival

Time 2026-04-27 22:15
Airport Larnaca International Airport (LCLK)
Time Latitude Longitude Altitude Speed Heading
2026-04-27 20:56 33.82400 35.49202 15 ft 0 kts 284°
2026-04-27 21:23 33.82399 35.49209 19 ft 4 kts 285°
2026-04-27 21:23 33.82388 35.49236 22 ft 4 kts 322°
2026-04-27 21:24 33.82364 35.49250 19 ft 4 kts 350°
2026-04-27 21:24 33.82338 35.49252 22 ft 4 kts
2026-04-27 21:24 33.82311 35.49247 21 ft 3 kts 13°
2026-04-27 21:24 33.82285 35.49239 21 ft 4 kts 20°
2026-04-27 21:25 33.82266 35.49230 20 ft 4 kts 25°
2026-04-27 21:31 33.82260 35.49226 19 ft 0 kts 27°
2026-04-27 21:31 33.82400 35.49202 20 ft 0 kts 284°
2026-04-27 21:39 33.82399 35.49205 19 ft 2 kts 284°
2026-04-27 21:39 33.82396 35.49222 19 ft 2 kts 284°
2026-04-27 21:39 33.82389 35.49240 21 ft 2 kts 301°
2026-04-27 21:39 33.82380 35.49257 19 ft 2 kts 342°
2026-04-27 21:40 33.82363 35.49261 19 ft 2 kts 10°
2026-04-27 21:40 33.82347 35.49258 22 ft 2 kts 10°
2026-04-27 21:40 33.82330 35.49254 19 ft 2 kts 10°
2026-04-27 21:40 33.82314 35.49251 19 ft 2 kts 12°
2026-04-27 21:41 33.82298 35.49246 19 ft 2 kts 24°
2026-04-27 21:41 33.82283 35.49238 18 ft 2 kts 17°
2026-04-27 21:41 33.82268 35.49233 21 ft 2 kts 13°
2026-04-27 21:41 33.82252 35.49229 19 ft 2 kts 13°
2026-04-27 21:42 33.82236 35.49224 21 ft 2 kts 13°
2026-04-27 21:42 33.82221 35.49220 22 ft 2 kts 39°
2026-04-27 21:42 33.82214 35.49206 22 ft 2 kts 77°
2026-04-27 21:42 33.82206 35.49189 21 ft 2 kts 10°
2026-04-27 21:43 33.82197 35.49188 20 ft 0 kts 330°
2026-04-27 21:45 33.82218 35.49162 18 ft 7 kts 304°
2026-04-27 21:45 33.82234 35.49095 18 ft 10 kts 282°
2026-04-27 21:45 33.82193 35.49032 18 ft 12 kts 189°
2026-04-27 21:45 33.82101 35.49036 18 ft 14 kts 176°
2026-04-27 21:46 33.81991 35.49044 18 ft 17 kts 176°
2026-04-27 21:46 33.81863 35.49053 18 ft 20 kts 177°
2026-04-27 21:46 33.81716 35.49063 18 ft 22 kts 177°
2026-04-27 21:46 33.81590 35.49071 18 ft 14 kts 177°
2026-04-27 21:47 33.81489 35.49016 18 ft 18 kts 215°
2026-04-27 21:47 33.81386 35.48929 14 ft 17 kts 215°
2026-04-27 21:47 33.81280 35.48842 17 ft 20 kts 214°
2026-04-27 21:47 33.81164 35.48743 17 ft 21 kts 215°
2026-04-27 21:48 33.81088 35.48762 17 ft 10 kts 147°
2026-04-27 21:48 33.81068 35.48716 19 ft 12 kts 318°
2026-04-27 21:48 33.81151 35.48684 18 ft 13 kts 347°
2026-04-27 21:48 33.81407 35.48612 19 ft 72 kts 347°
2026-04-27 21:49 33.82106 35.48419 18 ft 131 kts 347°
2026-04-27 21:49 33.83126 35.48131 105 ft 166 kts 346°
2026-04-27 21:49 33.84238 35.47830 740 ft 161 kts 349°
2026-04-27 21:49 33.85342 35.47565 1290 ft 164 kts 347°
2026-04-27 21:50 33.86484 35.47251 1760 ft 170 kts 346°
2026-04-27 21:50 33.87645 35.46932 2278 ft 172 kts 346°
2026-04-27 21:50 33.88771 35.46475 2822 ft 169 kts 332°
2026-04-27 21:50 33.89659 35.45561 3298 ft 171 kts 302°
2026-04-27 21:51 33.90271 35.44303 3694 ft 178 kts 300°
2026-04-27 21:51 33.90889 35.42986 4103 ft 189 kts 300°
2026-04-27 21:51 33.91574 35.41536 4483 ft 206 kts 301°
2026-04-27 21:51 33.92330 35.39981 4754 ft 231 kts 301°
2026-04-27 21:52 33.93192 35.38231 5146 ft 256 kts 301°
2026-04-27 21:52 33.94137 35.36325 5827 ft 269 kts 302°
2026-04-27 21:52 33.95109 35.34369 6690 ft 275 kts 302°
2026-04-27 21:52 33.96096 35.32382 7584 ft 278 kts 302°
2026-04-27 21:53 33.97047 35.30344 8541 ft 279 kts 294°
2026-04-27 21:53 33.97984 35.28246 9256 ft 286 kts 307°
2026-04-27 21:53 33.98980 35.26279 10139 ft 283 kts 302°
2026-04-27 21:53 33.99956 35.24467 11371 ft 257 kts 314°
2026-04-27 21:54 34.01016 35.22752 12263 ft 258 kts 307°
2026-04-27 21:54 34.02007 35.20930 13103 ft 260 kts 302°
2026-04-27 21:54 34.02919 35.19068 13622 ft 274 kts 301°
2026-04-27 21:54 34.03873 35.17079 14013 ft 286 kts 308°
2026-04-27 21:55 34.04799 35.15196 14968 ft 270 kts 308°
2026-04-27 21:55 34.05686 35.13481 16509 ft 223 kts 309°
2026-04-27 21:55 34.06468 35.11979 17165 ft 233 kts 308°
2026-04-27 21:55 34.07365 35.10155 16927 ft 273 kts 307°
2026-04-27 21:56 34.08385 35.08128 16720 ft 287 kts 308°
2026-04-27 21:56 34.10446 35.04195 16323 ft 273 kts 310°
2026-04-27 21:56 34.11478 35.02295 16029 ft 270 kts 310°
2026-04-27 21:57 34.12499 35.00402 15713 ft 269 kts 311°
2026-04-27 21:57 34.13501 34.98597 15423 ft 265 kts 312°
2026-04-27 21:57 34.14555 34.96765 15123 ft 265 kts 304°
2026-04-27 21:57 34.15458 34.94746 14409 ft 283 kts 296°
2026-04-27 21:58 34.16285 34.92491 14085 ft 310 kts 295°
2026-04-27 21:58 34.17223 34.89989 13985 ft 343 kts 296°
2026-04-27 21:58 34.18314 34.87312 13995 ft 368 kts 298°
2026-04-27 21:58 34.19549 34.84522 13998 ft 382 kts 300°
2026-04-27 21:59 34.20850 34.81756 13999 ft 384 kts 301°
2026-04-27 21:59 34.22208 34.78972 13999 ft 385 kts 302°
2026-04-27 21:59 34.23586 34.76191 14000 ft 386 kts 302°
2026-04-27 21:59 34.24985 34.73422 13994 ft 385 kts 303°
2026-04-27 22:00 34.26457 34.70716 13997 ft 384 kts 305°
2026-04-27 22:00 34.29818 34.64884 14004 ft 385 kts 306°
2026-04-27 22:00 34.31405 34.62139 13996 ft 384 kts 306°
2026-04-27 22:00 34.37387 34.51535 13996 ft 385 kts 305°
2026-04-27 22:01 34.42641 34.42097 14005 ft 386 kts 305°
2026-04-27 22:01 34.44149 34.39392 14005 ft 386 kts 305°
2026-04-27 22:01 34.45657 34.36696 14009 ft 386 kts 305°
2026-04-27 22:01 34.47178 34.34007 14007 ft 386 kts 305°
2026-04-27 22:02 34.48706 34.31321 14006 ft 386 kts 305°
2026-04-27 22:02 34.50245 34.28668 13995 ft 379 kts 309°
2026-04-27 22:02 34.52101 34.26615 13919 ft 357 kts 327°
2026-04-27 22:02 34.54194 34.25084 13676 ft 350 kts 330°
2026-04-27 22:03 34.56310 34.23590 13199 ft 345 kts 330°
2026-04-27 22:03 34.58367 34.22130 12752 ft 340 kts 330°
2026-04-27 22:03 34.60367 34.20709 12445 ft 342 kts 330°
2026-04-27 22:03 34.62459 34.19225 12128 ft 352 kts 330°
2026-04-27 22:04 34.64578 34.17718 11829 ft 353 kts 330°
2026-04-27 22:04 34.66691 34.16209 11386 ft 350 kts 330°
2026-04-27 22:04 34.68767 34.14718 10824 ft 346 kts 330°
2026-04-27 22:04 34.70836 34.13221 10270 ft 344 kts 330°
2026-04-27 22:05 34.72885 34.11728 9708 ft 342 kts 330°
2026-04-27 22:05 34.74915 34.10241 9106 ft 339 kts 330°
2026-04-27 22:05 34.76921 34.08774 8657 ft 329 kts 330°
2026-04-27 22:05 34.78870 34.07352 8305 ft 331 kts 330°
2026-04-27 22:06 34.80850 34.05912 7726 ft 331 kts 330°
2026-04-27 22:06 34.82826 34.04481 7165 ft 330 kts 330°
2026-04-27 22:06 34.84799 34.03058 6610 ft 329 kts 330°
2026-04-27 22:06 34.86726 34.01675 6053 ft 329 kts 330°
2026-04-27 22:07 34.88700 34.00271 5477 ft 328 kts 330°
2026-04-27 22:07 34.90679 33.98893 4994 ft 325 kts 330°
2026-04-27 22:07 34.92589 33.97565 4628 ft 305 kts 330°
2026-04-27 22:07 34.94369 33.96335 4377 ft 284 kts 330°
2026-04-27 22:08 34.96001 33.95184 4174 ft 264 kts 326°
2026-04-27 22:08 34.97331 33.93776 4050 ft 244 kts 316°
2026-04-27 22:08 34.98468 33.92371 3986 ft 222 kts 314°
2026-04-27 22:08 34.99377 33.90917 3936 ft 213 kts 302°
2026-04-27 22:09 35.00121 33.89359 3886 ft 212 kts 296°
2026-04-27 22:09 35.00687 33.87696 3838 ft 212 kts 291°
2026-04-27 22:09 35.01193 33.86013 3785 ft 211 kts 290°
2026-04-27 22:09 35.01623 33.84314 3743 ft 205 kts 283°
2026-04-27 22:10 35.01721 33.82622 3685 ft 198 kts 268°
2026-04-27 22:10 35.01659 33.81497 3648 ft 197 kts 266°
2026-04-27 22:10 35.01246 33.79369 3556 ft 199 kts 235°
2026-04-27 22:10 35.00269 33.78136 3167 ft 206 kts 225°
2026-04-27 22:11 34.99260 33.76944 2827 ft 194 kts 226°
2026-04-27 22:11 34.98413 33.75701 2709 ft 202 kts 242°
2026-04-27 22:11 34.97592 33.74289 2614 ft 207 kts 229°
2026-04-27 22:11 34.96559 33.73184 2454 ft 185 kts 218°
2026-04-27 22:12 34.95502 33.72341 2063 ft 179 kts 217°
2026-04-27 22:12 34.94602 33.71449 1971 ft 166 kts 224°
2026-04-27 22:12 34.93680 33.70386 1751 ft 187 kts 226°
2026-04-27 22:12 34.92784 33.69298 1442 ft 176 kts 227°
2026-04-27 22:13 34.92051 33.68228 1303 ft 157 kts 237°
2026-04-27 22:13 34.91349 33.67256 953 ft 147 kts 222°
2026-04-27 22:13 34.90667 33.66406 721 ft 134 kts 227°
2026-04-27 22:13 34.90016 33.65602 527 ft 134 kts 224°
2026-04-27 22:14 34.89335 33.64807 363 ft 135 kts 224°
2026-04-27 22:14 34.88681 33.63990 180 ft 135 kts 224°
2026-04-27 22:14 34.88026 33.63200 33 ft 129 kts 227°
2026-04-27 22:14 34.87481 33.62494 19 ft 89 kts 205°
2026-04-27 22:15 34.87127 33.62098 22 ft 53 kts 222°
2026-04-27 22:15 34.86960 33.61796 24 ft 38 kts 250°
2026-04-27 22:15 34.86904 33.61632 19 ft 36 kts 246°